Theta_e
324 329 332 332 330 331 333 337 345 345 347 347 348 351 356 354 351 350 347 346 346 347 346 346 347 348 348 346 346 346 347 347 348 348 348 348 347 346 345 342 341 343 346 346
326 330 329 329 330 333 334 336 337 336 345 347 347 351 354 354 354 351 349 347 344 343 343 343 345 347 347 347 347 346 347 348 347 348 348 348 347 347 346 345 344 344 345 346
328 330 329 330 333 336 334 334 334 336 346 343 350 351 352 354 352 351 347 345 344 342 343 343 344 346 346 346 346 346 346 346 347 348 347 348 348 349 348 347 346 345 346 348
327 328 330 330 331 334 337 334 334 346 344 347 346 346 346 349 353 350 348 344 345 341 343 343 343 344 345 346 346 346 346 346 347 348 348 348 349 349 348 348 348 348 348 346
330 329 327 327 327 333 336 333 331 341 329 342 342 336 334 348 351 349 346 344 344 343 343 343 343 345 345 345 346 346 346 347 347 347 348 349 350 350 348 348 345 345 346 346
327 323 325 325 325 332 332 327 323 320 320 327 330 339 336 347 348 348 345 345 344 345 343 343 343 344 346 346 347 347 347 347 347 348 349 349 351 350 349 350 350 348 348 348
323 324 322 323 326 324 325 325 328 329 325 327 325 329 329 339 342 342 345 344 344 344 345 344 344 344 346 348 348 348 348 347 347 348 349 349 350 351 350 350 351 349 349 348
321 326 322 321 325 324 325 324 327 332 327 327 331 336 339 341 341 342 341 344 345 344 343 346 346 344 343 346 348 350 349 349 348 349 349 350 350 351 350 352 352 352 349 348
320 322 321 321 322 322 323 325 322 321 319 325 328 339 337 341 344 346 346 346 345 344 344 345 342 342 342 340 342 350 351 352 350 349 346 347 349 351 350 352 354 352 351 350
319 322 320 326 327 328 321 319 323 319 327 328 332 344 338 340 345 346 346 344 343 344 344 344 346 348 345 341 343 350 352 346 343 344 342 339 338 340 341 352 354 349 351 351
316 318 321 327 331 330 328 329 318 318 320 326 334 334 333 337 342 347 345 344 344 344 343 343 347 350 350 342 340 340 340 342 344 345 343 342 336 335 336 345 346 343 351 351
317 315 319 321 328 329 329 330 321 324 327 329 329 334 339 341 341 345 343 343 345 344 341 340 345 345 343 345 341 338 337 337 341 338 336 336 337 335 337 342 349 350 351 349
320 318 320 326 329 330 334 332 324 320 323 331 335 334 341 342 344 344 345 343 344 342 339 336 341 344 342 339 339 337 337 336 331 332 333 335 336 334 334 339 347 349 349 351
328 322 320 323 330 329 334 333 328 326 329 329 332 330 342 344 345 343 342 343 341 337 340 335 336 339 341 341 339 337 336 337 333 334 336 337 335 334 336 340 346 348 344 338
326 330 329 331 332 332 333 333 332 332 329 332 330 331 333 341 340 339 339 342 340 340 339 336 334 336 341 342 341 338 337 337 336 337 337 340 341 340 340 339 336 332 329 329
324 329 331 336 334 334 334 333 333 333 330 332 336 336 334 337 335 336 338 341 341 343 338 336 337 339 340 338 339 339 339 338 338 337 338 340 341 340 338 337 335 334 334 334
328 328 328 336 334 331 331 331 332 332 330 336 340 335 339 341 339 338 338 340 344 345 342 340 340 340 338 336 337 336 336 339 338 336 335 335 334 335 335 335 335 335 336 336
327 327 327 335 330 334 328 325 329 334 333 336 339 338 337 339 339 338 337 339 343 344 337 332 331 330 331 332 333 334 333 332 331 329 328 328 328 328 328 329 329 329 330 330
322 323 328 333 330 328 327 331 335 335 338 336 340 339 343 342 340 340 336 338 336 330 326 327 326 326 326 326 325 325 323 321 320 319 318 318 319 321 323 323 323 323 323 323
321 318 326 328 336 332 327 329 327 330 336 336 339 339 345 343 343 341 334 332 328 324 323 323 323 323 323 321 322 320 317 316 315 314 314 314 314 314 314 314 314 315 315 315
327 325 326 327 328 327 323 330 328 331 331 339 343 338 343 342 335 333 329 326 323 321 320 319 318 317 317 317 317 315 314 313 313 313 312 311 309 309 308 308 308 308 309 309
328 329 327 326 329 332 329 333 329 326 332 338 336 333 331 330 329 328 326 324 322 319 317 316 315 315 315 314 314 313 313 312 309 308 307 307 306 306 306 306 306 307 308 308
330 325 327 325 327 323 328 329 330 328 332 333 330 329 330 329 327 325 323 321 319 317 315 314 314 314 313 313 313 311 311 310 308 307 307 306 306 305 305 306 306 306 306 307
326 326 332 332 331 333 330 327 327 328 328 326 328 329 329 326 322 320 319 317 316 316 314 313 312 312 311 312 312 311 310 308 307 307 308 307 305 304 304 304 304 305 305 305
325 326 328 331 331 331 330 328 326 326 326 326 325 326 324 322 320 318 316 315 314 313 313 312 312 312 311 311 311 310 309 308 308 308 309 308 306 305 304 304 303 303 303 304
323 325 329 328 328 331 331 326 326 327 326 324 324 322 320 319 318 316 314 313 313 312 312 312 312 311 311 311 311 310 310 310 309 309 309 309 308 305 304 303 303 303 302 302
Wind_Speed
4 5 3 4 6 5 2 4 6 4 6 5 9 3 8 11 11 12 12 13 14 16 20 17 19 21 25 27 27 29 28 28 26 25 22 21 22 21 20 18 18 17 17 16
6 3 4 3 4 2 3 4 6 3 5 9 4 4 6 13 18 16 13 11 15 14 7 11 20 22 26 29 29 29 28 28 27 25 24 23 19 20 20 17 17 17 17 18
4 4 2 1 3 1 3 5 3 2 5 3 4 4 5 8 9 10 9 9 9 13 12 9 15 24 25 27 32 31 30 29 26 26 25 23 18 16 14 16 18 18 17 18
5 2 2 3 2 5 4 3 3 10 6 5 3 5 6 8 13 13 15 10 12 9 8 9 14 18 25 34 30 30 29 29 27 26 26 25 23 17 14 15 14 12 15 17
6 4 2 2 4 5 6 2 1 6 4 5 3 3 7 2 9 18 15 14 11 11 12 11 15 22 28 23 29 29 28 27 28 27 26 26 24 22 17 12 12 12 13 13
4 2 4 6 2 6 2 4 6 5 3 1 3 4 8 4 8 10 7 11 9 9 9 8 14 16 21 21 24 27 27 31 30 28 27 27 27 23 20 18 18 15 13 14
5 3 4 3 2 3 4 5 3 3 4 5 2 4 9 5 7 5 8 11 11 9 7 6 7 6 5 10 19 22 27 30 31 28 29 28 28 25 22 22 20 20 15 13
4 2 4 2 6 5 2 5 5 5 3 4 5 5 5 6 8 9 8 10 7 7 8 10 6 11 12 9 14 18 20 30 29 24 21 24 26 28 27 23 22 20 15 14
5 5 4 3 1 6 4 3 4 7 3 3 2 5 8 4 7 6 3 5 7 11 10 7 11 15 11 10 9 11 16 9 8 10 2 6 14 29 29 25 20 18 16 16
6 0 2 3 3 5 3 6 3 3 3 3 4 3 5 5 7 8 3 4 7 9 11 11 9 11 9 12 16 14 16 22 15 13 8 5 13 19 37 31 22 18 19 12
5 3 5 2 2 1 4 1 6 5 4 5 2 6 6 7 7 5 3 1 5 8 9 9 9 11 12 20 17 19 19 18 14 16 13 13 11 27 44 38 24 21 12 9
7 5 2 5 3 4 3 3 4 5 4 1 4 5 1 4 4 2 6 4 6 9 12 8 12 16 17 13 11 13 13 12 11 10 7 8 16 17 41 37 28 15 11 9
8 1 2 8 6 3 1 2 5 5 3 5 5 6 4 4 4 4 5 6 4 9 8 7 7 11 17 19 16 11 10 8 10 11 12 10 3 4 39 38 28 13 11 7
9 4 7 8 8 4 4 5 5 5 4 5 6 5 5 5 4 6 6 5 4 4 3 6 4 3 7 5 7 13 10 1 7 13 17 18 17 18 34 36 19 11 11 9
6 6 4 2 2 4 3 4 5 5 4 5 5 8 5 10 10 8 6 2 4 3 1 5 3 2 5 7 10 12 12 10 13 9 8 7 5 14 24 18 13 9 9 8
3 2 4 2 2 3 1 1 4 4 2 4 2 4 3 4 6 5 7 5 3 2 6 4 4 6 7 8 7 13 16 13 9 7 3 5 7 10 13 11 8 7 9 9
5 6 3 2 4 4 3 4 6 3 5 6 4 4 5 4 8 7 7 7 5 5 4 3 4 6 9 13 12 16 13 11 12 11 10 6 1 1 5 7 8 10 11 13
6 5 3 3 2 1 6 4 5 4 1 5 2 6 5 5 3 5 4 4 4 5 7 7 9 12 15 17 17 15 15 17 16 14 13 11 8 8 7 6 6 7 7 9
4 5 4 4 3 4 2 3 2 2 4 4 3 6 7 8 5 5 2 5 5 7 10 13 15 16 21 22 23 25 19 16 14 12 10 10 10 11 12 13 15 15 16 18
6 7 5 2 5 6 7 2 3 5 4 5 6 7 9 7 4 3 6 9 10 13 14 18 21 22 20 16 15 17 15 14 15 14 13 12 13 13 14 15 18 19 21 23
2 3 5 3 2 5 5 4 5 4 7 3 6 6 6 4 1 8 13 11 15 15 17 19 20 19 15 11 10 15 13 14 11 10 10 12 13 14 15 16 17 20 22 23
5 5 3 3 3 5 2 4 7 6 1 4 5 5 9 12 11 11 13 12 15 16 14 16 17 15 11 9 9 12 12 10 10 11 12 13 13 14 15 17 19 19 19 22
1 4 5 7 6 3 3 3 2 5 5 6 7 10 16 14 11 10 9 9 11 15 15 15 18 16 12 10 10 13 11 9 8 11 12 12 11 12 14 15 17 19 21 21
1 2 3 3 1 3 2 2 1 3 3 6 11 15 15 15 11 12 10 7 8 11 11 11 13 14 13 11 10 10 8 6 6 5 7 11 13 18 21 23 22 20 20 18
4 4 5 2 3 2 3 1 4 7 11 13 10 10 14 16 10 9 7 6 10 11 9 8 9 9 8 7 7 6 6 4 2 2 5 8 11 14 19 19 19 19 21 21
4 6 4 5 8 6 5 8 8 12 12 12 17 9 6 9 11 10 7 11 11 10 9 8 7 6 4 2 2 1 1 4 6 9 11 13 15 17 21 21 23 26 27 29
Wind_Direction
5 69 219 229 181 163 197 191 195 228 199 162 220 129 202 186 205 199 200 207 215 219 224 213 204 202 210 216 216 218 217 223 226 222 227 234 238 240 240 236 241 250 257 256
18 213 210 234 160 166 198 181 222 242 192 178 147 207 210 198 212 208 202 203 214 227 207 188 193 196 207 214 217 220 223 224 226 230 227 229 241 248 246 243 242 244 252 260
168 238 183 240 12 97 195 204 182 182 139 30 89 306 194 228 223 226 228 216 220 211 205 184 182 194 201 213 219 220 222 226 227 229 230 232 242 248 246 245 247 248 252 258
220 271 302 13 266 156 305 178 126 132 129 199 144 266 249 211 214 221 228 216 213 201 202 192 189 193 200 217 220 221 222 227 227 227 229 229 233 242 256 258 261 263 260 271
231 158 69 322 224 176 232 88 110 160 110 98 304 81 269 219 224 228 219 220 211 193 191 192 197 199 211 208 215 219 221 226 229 224 227 233 237 250 261 281 283 278 264 263
200 250 222 213 157 190 202 111 60 60 86 30 229 139 287 197 247 257 213 216 206 179 183 186 203 201 202 211 218 216 217 224 229 228 224 231 237 245 259 264 272 275 260 252
345 268 277 194 358 15 79 61 351 5 14 221 57 125 242 275 275 266 225 205 207 161 160 136 105 159 141 209 218 222 219 225 227 229 229 232 240 245 253 262 268 275 271 263
145 304 184 165 177 199 89 161 154 203 199 256 111 226 256 245 293 299 249 200 181 150 78 85 77 81 110 185 217 228 225 232 234 232 245 247 245 247 250 257 266 268 270 276
140 273 306 227 127 128 194 182 178 103 13 52 245 289 310 315 315 330 237 188 81 80 86 90 68 72 81 81 83 182 201 193 162 173 121 342 331 281 254 254 254 255 260 269
195 282 279 264 96 64 169 154 79 17 141 241 305 285 241 283 270 278 320 42 72 92 94 100 82 71 84 100 98 106 134 132 134 157 128 20 343 354 335 266 250 264 264 271
133 128 278 33 61 127 324 47 53 112 112 161 197 262 211 239 233 262 330 293 71 84 107 116 115 89 89 121 111 104 108 136 172 189 236 268 290 317 332 290 270 265 265 255
195 140 201 216 283 165 219 166 119 118 222 101 151 273 243 280 277 257 267 304 59 76 115 123 136 117 116 136 120 100 99 130 174 200 220 291 289 294 311 294 284 260 240 215
180 221 31 351 357 13 357 79 92 100 89 186 140 256 356 7 340 294 308 306 42 87 120 127 136 146 151 148 139 102 105 120 121 111 98 94 138 253 220 277 280 221 205 198
97 124 158 195 202 142 187 176 150 130 122 172 220 256 256 240 232 275 281 296 23 33 101 115 150 188 195 224 182 148 128 6 155 130 93 112 124 184 226 263 229 183 187 200
126 160 153 300 190 140 203 199 163 174 181 169 235 199 282 201 206 226 231 252 305 348 215 137 133 131 337 306 219 199 160 178 197 144 164 96 129 204 229 217 208 207 219 236
13 154 110 149 266 119 84 231 171 218 135 298 265 237 320 131 125 183 209 169 227 258 238 153 158 87 33 45 76 77 79 92 133 125 293 269 243 238 249 250 256 263 270 269
102 128 96 219 5 44 2 222 204 195 176 156 178 216 174 147 190 195 182 179 183 210 201 46 16 33 49 41 52 60 60 65 67 82 91 99 123 290 303 304 300 292 287 281
121 94 89 157 39 144 238 295 213 144 302 201 272 142 165 167 110 143 184 186 170 99 82 54 58 72 79 97 103 107 101 99 97 84 72 62 53 44 32 16 1 344 328 316
84 115 83 128 167 271 142 177 161 161 252 199 177 115 123 125 103 37 71 55 87 91 82 87 88 88 93 99 113 114 104 100 91 77 57 40 23 9 359 350 343 335 324 316
56 71 102 139 148 186 221 191 120 117 294 196 151 167 153 157 122 205 114 105 96 92 92 89 91 99 100 101 105 99 91 77 57 41 31 21 13 7 356 345 334 327 324 316
70 43 130 120 182 290 243 178 150 95 239 159 142 142 144 124 87 122 111 98 97 96 90 101 102 99 100 99 90 78 72 66 62 54 51 42 32 21 5 352 344 336 328 321
148 132 138 103 108 254 163 118 151 206 248 150 115 121 108 118 111 111 115 119 118 116 114 116 107 98 91 85 92 96 91 87 81 78 71 57 39 24 6 353 343 330 320 312
291 175 172 174 203 227 271 258 326 156 163 169 125 129 128 125 127 125 118 113 118 123 126 126 122 118 113 112 110 108 108 104 113 97 74 59 38 17 9 353 344 337 329 314
261 152 106 97 272 300 348 325 144 148 135 114 126 136 137 132 130 120 120 121 116 119 118 124 124 123 121 119 112 104 110 119 126 85 44 23 10 10 11 5 352 329 315 307
212 120 130 315 297 315 288 206 139 103 109 110 99 117 126 123 121 125 126 124 126 125 123 119 115 112 105 109 117 126 139 147 146 33 2 349 350 354 356 350 341 332 322 308
181 169 151 220 203 165 217 154 144 137 136 134 125 112 82 125 128 133 131 137 134 133 133 133 134 129 119 128 135 156 307 322 328 324 325 327 331 334 343 341 337 339 336 329